Regional Weather Roundup
Issued by NWS San Angelo, TX

Home | Current Version | Previous Version | Text Only | Print | Product List | Glossary On
Versions: 1 2 3 4 5 6 7 8 9 10 11 12 13 14 15 16 17 18 19 20 21 22 23 24 25 26 27 28 29 30 31 32 33 34 35 36 37 38 39 40 41 42 43 44 45 46 47 48 49 50
000
ASUS44 KSJT 030511
RWRSJT
WEST CENTRAL TEXAS REGIONAL WEATHER ROUNDUP
NATIONAL WEATHER SERVICE SAN ANGELO TX
1200 AM CDT TUE MAY 03 2016

NOTE: "FAIR" INDICATES FEW OR NO CLOUDS BELOW 12,000 FEET WITH NO
SIGNIFICANT WEATHER AND/OR OBSTRUCTIONS TO VISIBILITY.

TXZ049-054-064>066-071>073-076>078-098-099-113-114-127-128-139-140-
154-155-168>170-030600
...LOCATIONS ACROSS WEST CENTRAL TEXAS...

CITY           SKY/WX    TMP DP  RH WIND       PRES   REMARKS
SAN ANGELO     CLEAR     51  46  83 S6        30.13F
ABILENE        CLEAR     51  48  89 S6        30.14F
DYESS AFB      NOT AVBL
JUNCTION       CLEAR     48  45  89 NW3       30.14F
SWEETWATER     CLEAR     53  42  66 SE6       30.16F
BROWNWOOD      CLEAR     50  48  93 CALM      30.14F
COLEMAN        CLEAR     50  48  90 CALM      30.15S
SONORA         CLEAR     52  48  87 CALM      30.18F
OZONA          FAIR      52  45  76 CALM      30.16F
BRADY          NOT AVBL
$$

TEXAS PANHANDLE/OKLAHOMA PANHANDLE

CITY           SKY/WX    TMP DP  RH WIND       PRES   REMARKS
AMARILLO       CLEAR     46  37  71 SE8       30.14F
BORGER         CLEAR     53  38  56 S6        30.13F
CANADIAN       CLEAR     42  39  88 SW3       30.12F
DALHART        CLEAR     46  38  73 SE7       30.14F
DUMAS          CLEAR     45  37  73 SE5       30.13F
GUYMON         NOT AVBL
HEREFORD       CLEAR     46  38  73 SE6       30.16S
PAMPA          CLEAR     48  41  77 S7        30.14F
PERRYTON       CLEAR     46  40  78 S5        30.12F
$$

SOUTHERN PANHANDLE/SOUTH PLAINS/ROLLING PLAINS

CITY           SKY/WX    TMP DP  RH WIND       PRES   REMARKS
LUBBOCK        CLEAR     49  32  52 E7        30.15R
SNYDER           N/A     53  40  61 E6        30.15S
CHILDRESS      CLEAR     58  35  42 E5        30.12F
SEMINOLE       CLEAR     53  34  48 SE5       30.16S
$$

PERMIAN BASIN

CITY           SKY/WX    TMP DP  RH WIND       PRES   REMARKS
MIDLAND        CLEAR     57  41  55 SE8       30.13F
ODESSA         CLEAR     59  40  49 SE9       30.14S
WINK           CLEAR     54  34  46 E6        30.12R
$$

FAR WEST/SOUTHWEST MOUNTAINS/TRANS PECOS

CITY           SKY/WX    TMP DP  RH WIND       PRES   REMARKS
ALPINE         CLEAR     48  33  56 CALM      30.23S
DRYDEN           N/A     57  41  55 NE7       30.11R
EL PASO        CLEAR     63  31  30 E10       30.10S
FORT STOCKTON  CLEAR     55  38  52 S8        30.14R
GUADALUPE PASS CLEAR     50  32  50 NE22      30.20R
MARFA          CLEAR     49  34  56 NE3       30.20R
PECOS          CLEAR     55  33  43 CALM      30.12S
$$

DALLAS/FORT WORTH METROPLEX

CITY           SKY/WX    TMP DP  RH WIND       PRES   REMARKS
DFW AIRPORT    CLEAR     55  46  71 N3        30.11F
FTW MEACHAM    CLEAR     55  48  77 NE3       30.12S
DAL-EXECUTIVE  CLEAR     51  46  83 NW3       30.11F
GRAND PRAIRIE  CLEAR     55  46  69 CALM      30.14S
ADDISON        CLEAR     55  49  80 CALM      30.14S
MESQUITE       CLEAR     53  49  86 CALM      30.12S
LANCASTER      CLEAR     52  48  84 CALM      30.13S
$$

NORTH CENTRAL TEXAS

CITY           SKY/WX    TMP DP  RH WIND       PRES   REMARKS
SHRMAN/DENISON CLEAR     46  42  86 SW3       30.13S
GAINESVILLE    CLEAR     49  46  90 CALM      30.14F
BRIDGEPORT     CLEAR     48  48 100 CALM      30.15S
DENTON         CLEAR     48  47  96 W3        30.12F
WAXAHACHIE     CLEAR     51  48  89 CALM      30.13F
GRANBURY       CLEAR     50  48  90 CALM      30.14F
$$

WESTERN NORTH TEXAS

CITY           SKY/WX    TMP DP  RH WIND       PRES   REMARKS
WICHITA FALLS  CLEAR     51  46  83 SE3       30.13S
VERNON         CLEAR     53  41  64 E5        30.13F
BRECKENRIDGE   CLEAR     54  47  75 SE6       30.12F
COMANCHE       CLEAR     55  49  81 CALM      30.14F
$$

CENTRAL AND SOUTH CENTRAL TEXAS

CITY           SKY/WX    TMP DP  RH WIND       PRES   REMARKS
AUSTIN/BERGSTM MOCLDY    58  52  80 NW6       30.10F
WACO           CLEAR     54  50  86 N6        30.12S
HILLSBORO      CLEAR     50  48  93 N6        30.12F
TEMPLE         MOCLDY    53  51  93 N3        30.12S
KILLEEN-GRAY   NOT AVBL
FORT HOOD      NOT AVBL
GEORGETOWN       N/A    N/A N/A N/A MISG        N/A
LAGO VISTA     FAIR      56  50  81 NW5       30.12S
SAN MARCOS     MOCLDY    57  52  82 N8        30.11S
NEW BRAUNFELS  MOCLDY    59  51  75 N6        30.09S
RANDOLPH AFB   NOT AVBL
SAN ANTONIO    CLOUDY    59  50  72 N8        30.11S
STINSON        CLOUDY    63  50  62 N8        30.08S
PLEASANTON     NOT AVBL
LA GRANGE        N/A     61  55  79 N7        30.06F
GIDDINGS       MOCLDY    59  52  78 N6        30.12S
$$

EAST TEXAS

CITY           SKY/WX    TMP DP  RH WIND       PRES   REMARKS
PARIS          CLEAR     50  41  71 NW7       30.09F
CLARKSVILLE    NOT AVBL
TYLER          CLEAR     54  49  83 NW5       30.09S
LONGVIEW       CLEAR     56  50  80 NW10      30.07S
PALESTINE      CLEAR     55  53  94 NW6       30.10F
NACOGDOCHES    PTCLDY    57  54  88 N7        30.06S
$$

TEXAS HILL COUNTRY AND EDWARDS PLATEAU

CITY           SKY/WX    TMP DP  RH WIND       PRES   REMARKS
LLANO          CLEAR     52  48  87 CALM      30.16F
HORSESHOE BAY  FAIR      51  50  95 CALM      30.13S
KERRVILLE      CLOUDY    52  49  89 CALM      30.14F
FREDERICKSBRG  PTCLDY    49  47  93 CALM      30.13F
ROCKSPRINGS    CLEAR     52  46  82 CALM      30.15F
HONDO          CLOUDY    59  52  77 N6        30.13F
UVALDE         CLOUDY    58  53  81 CALM      30.12F
DEL RIO        CLEAR     57  52  83 E5        30.10S
$$

SOUTHEAST TEXAS

CITY           SKY/WX    TMP DP  RH WIND       PRES   REMARKS
COLLEGE STN    MOCLDY    59  54  83 N8        30.08S
CALDWELL       PTCLDY    57  52  82 N8        30.12F
CROCKETT       PTCLDY    57  54  88 N6        30.10F
BRENHAM        PTCLDY    60  55  84 NW3       30.09S
HUNTSVILLE     CLEAR     59  54  83 N5        30.07R
CONROE         CLEAR     61  55  81 N8        30.06S
HOUSTON BUSH   MOCLDY    62  56  80 N9        30.04F
HOUSTON HOBBY  MOCLDY    66  57  72 N9        30.03S
PERLAND        CLOUDY    67  58  72 N10       30.04S
WHARTON        PTCLDY    61  56  85 N8        30.06S
$$

THE UPPER TEXAS COAST

CITY           SKY/WX    TMP DP  RH WIND       PRES   REMARKS
ORANGE         CLOUDY    66  60  78 N6        30.02F
PORT ARTHUR    CLOUDY    67  62  84 N9        30.01R
GALVESTON      CLOUDY    68  63  84 N16       30.02S
ANGLETON       CLOUDY    66  59  78 N9        30.02F
BAY CITY       MOCLDY    65  59  82 N7        30.04R
$$

TEXAS COASTAL BEND, RIO GRANDE PLAINS DEEP SOUTH TEXAS

CITY           SKY/WX    TMP DP  RH WIND       PRES   REMARKS
VICTORIA       CLOUDY    62  54  74 N8        30.07R
BEEVILLE       CLOUDY    63  55  74 N3        30.08R
ROCKPORT       CLOUDY    66  55  67 N14       30.06R
PORT ARANSAS   CLOUDY    67  58  73 N16       30.05S
PORT LAVACA    CLOUDY    63  57  82 N10       30.06S
CORPUS CHRISTI CLOUDY    67  53  61 N15       30.06S
KINGSVILLE NAS CLOUDY    66  57  72 N6        30.06S
COTULLA        PTCLDY    63  50  62 N5        30.10S
LAREDO         CLOUDY    66  53  63 N7        30.10S
BROWNSVILLE    CLOUDY    71  58  63 N10       30.04S
PORT ISABEL    CLOUDY    71  60  68 N14       30.03S
HEBBRONVILLE   CLOUDY    65  51  60 N7        30.09S
MCALLEN        CLOUDY    73  55  53 N12       30.07R
WESLACO        CLOUDY    70  56  62 N6        30.05S
FALFURRIAS     CLOUDY    67  53  59 N8        30.07S
EDINBURG       CLOUDY    71  55  56 N6        30.07S
$$




USA.gov is the U.S. government's official web portal to all federal, state and local government web resources and services.